{"data":{"norad_id":64767,"intl_designator":"2025-147N","name":"STARLINK-34639","alt_names":[],"object_type":"PAYLOAD","status":"ACTIVE","operator":null,"country":"US","launch_date":"2025-07-08","launch_site_code":"AFETR","launch_vehicle":null,"mission":null,"orbit_class":"UNKNOWN","rcs_meters":null,"size_class":null,"mass_kg":null,"dimensions":null,"purposes":["comms"],"wikipedia_slug":null,"has_3d_model":false,"image_url":null,"decayed_at":null,"tle_current":{"epoch":"2026-05-24T23:58:25.824864Z","epoch_age_seconds":72454,"freshness":"FRESH","line1":"1 64767U 25147N   26144.99891001  .00023318  00000+0  69898-3 0  9992","line2":"2 64767  53.1592 247.6896 0001058  87.2817 272.8307 15.34405684 50392","mean_motion":15.34405684,"eccentricity":0.0001058,"inclination_deg":53.1592,"raan_deg":247.6896,"arg_perigee_deg":87.2817,"mean_anomaly_deg":272.8307,"bstar":0.00069898,"rev_number":5039,"period_min":93.847410434906,"perigee_km":461.96258710338,"apogee_km":463.41010532344,"semimajor_km":6840.8233462134,"source":"CELESTRAK","updated_at":"2026-05-25T13:38:20.556285Z"}}}